"read_dt","SO2 (ppb)","flags","PMT voltage (V)","lamp voltage (V)","lamp intensity (Hz)","internal temp (C)","react chamber temp (C)","sample flow (l/min)","pres (mmHg)","SO2 bkg (ppb)","SO2 coefficient"
2015-11-23 00:00:00,1862E-3,5C000400,-0724,0829,12325,025.4,045.4,0.261,766.7,01.15,0.508
2015-11-23 00:01:00,1783E-3,5C000400,-0724,0829,12311,025.4,045.3,0.262,766.5,01.15,0.508
2015-11-23 00:02:00,1784E-3,5C000400,-0724,0832,12454,025.4,045.3,0.262,766.7,01.15,0.508
2015-11-23 00:03:00,1860E-3,5C000400,-0724,0832,12259,025.4,045.3,0.262,766.6,01.15,0.508
2015-11-23 00:04:00,1754E-3,5C000400,-0724,0832,11236,025.4,045.4,0.262,766.6,01.15,0.508
2015-11-23 00:05:00,1830E-3,5C000400,-0724,0831,12365,025.4,045.4,0.262,766.6,01.15,0.508
2015-11-23 00:06:00,1857E-3,5C000400,-0724,0828,12133,025.4,045.4,0.262,766.7,01.15,0.508
2015-11-23 00:07:00,1877E-3,5C000400,-0724,0828,12126,025.4,045.4,0.262,766.6,01.15,0.508
2015-11-23 00:08:00,1912E-3,5C000400,-0724,0832,12385,025.4,045.3,0.261,766.4,01.15,0.508
2015-11-23 00:09:00,1750E-3,5C000400,-0724,0829,12358,025.5,045.3,0.262,766.3,01.15,0.508
2015-11-23 00:10:00,1819E-3,5C000400,-0724,0830,12324,025.5,045.4,0.262,766.4,01.15,0.508
2015-11-23 00:11:00,1838E-3,5C000400,-0724,0828,12330,025.5,045.4,0.262,766.5,01.15,0.508
2015-11-23 00:12:00,1846E-3,5C000400,-0724,0828,12223,025.5,045.4,0.262,766.3,01.15,0.508
2015-11-23 00:13:00,1937E-3,5C000400,-0724,0829,12186,025.5,045.4,0.261,766.4,01.15,0.508
2015-11-23 00:14:00,1940E-3,5C000400,-0724,0829,12166,025.5,045.3,0.262,766.4,01.15,0.508
2015-11-23 00:15:00,1825E-3,5C000400,-0724,0828,12237,025.5,045.4,0.262,766.6,01.15,0.508
2015-11-23 00:16:00,1872E-3,5C000400,-0724,0831,12429,025.5,045.4,0.262,766.5,01.15,0.508
2015-11-23 00:17:00,1844E-3,5C000400,-0724,0827,12393,025.5,045.4,0.262,766.5,01.15,0.508
2015-11-23 00:18:00,1946E-3,5C000400,-0724,0828,12248,025.5,045.4,0.261,766.4,01.15,0.508
2015-11-23 00:19:00,1969E-3,5C000400,-0724,0827,12258,025.5,045.3,0.262,766.3,01.15,0.508
2015-11-23 00:20:00,1830E-3,5C000400,-0724,0831,12565,025.5,045.4,0.262,766.4,01.15,0.508
2015-11-23 00:21:00,1744E-3,5C000400,-0724,0828,12222,025.5,045.4,0.261,766.3,01.15,0.508
2015-11-23 00:22:00,1764E-3,5C000400,-0724,0829,12201,025.6,045.4,0.262,766.2,01.15,0.508
2015-11-23 00:23:00,1892E-3,5C000400,-0724,0830,12315,025.6,045.4,0.261,766.1,01.15,0.508
2015-11-23 00:24:00,1926E-3,5C000400,-0724,0828,12196,025.6,045.3,0.262,766.4,01.15,0.508
2015-11-23 00:25:00,1961E-3,5C000400,-0724,0830,12451,025.6,045.3,0.262,766.0,01.15,0.508
2015-11-23 00:26:00,1770E-3,5C000400,-0724,0830,12546,025.6,045.4,0.261,766.2,01.15,0.508
2015-11-23 00:27:00,1899E-3,5C000400,-0724,0829,12212,025.6,045.4,0.262,766.3,01.15,0.508
2015-11-23 00:28:00,1915E-3,5C000400,-0724,0829,12320,025.6,045.4,0.262,766.3,01.15,0.508
2015-11-23 00:29:00,1832E-3,5C000400,-0724,0830,12090,025.6,045.4,0.261,766.2,01.15,0.508
2015-11-23 00:30:00,1863E-3,5C000400,-0724,0830,11172,025.6,045.4,0.262,766.2,01.15,0.508
2015-11-23 00:31:00,1860E-3,5C000400,-0724,0829,12062,025.6,045.4,0.261,766.2,01.15,0.508
2015-11-23 00:32:00,1931E-3,5C000400,-0724,0830,12374,025.6,045.4,0.262,766.3,01.15,0.508
2015-11-23 00:33:00,1831E-3,5C000400,-0724,0830,12246,025.6,045.3,0.262,766.3,01.15,0.508
2015-11-23 00:34:00,1879E-3,5C000400,-0724,0830,12226,025.6,045.3,0.261,766.3,01.15,0.508
2015-11-23 00:35:00,1756E-3,5C000400,-0724,0830,12322,025.6,045.4,0.262,766.2,01.15,0.508
2015-11-23 00:36:00,1860E-3,5C000400,-0724,0831,12225,025.7,045.4,0.261,766.1,01.15,0.508
2015-11-23 00:37:00,1722E-3,5C000400,-0724,0829,12150,025.6,045.4,0.262,766.0,01.15,0.508
2015-11-23 00:38:00,1857E-3,5C000400,-0724,0831,12305,025.7,045.4,0.261,765.9,01.15,0.508
2015-11-23 00:39:00,1815E-3,5C000400,-0724,0830,12151,025.7,045.3,0.261,766.0,01.15,0.508
2015-11-23 00:40:00,1801E-3,5C000400,-0724,0830,12086,025.7,045.4,0.261,766.1,01.15,0.508
2015-11-23 00:41:00,1885E-3,5C000400,-0724,0829,12243,025.7,045.4,0.261,766.2,01.15,0.508
2015-11-23 00:42:00,1931E-3,5C000400,-0724,0831,12439,025.7,045.4,0.262,766.2,01.15,0.508
2015-11-23 00:43:00,1912E-3,5C000400,-0724,0830,12362,025.7,045.4,0.261,766.3,01.15,0.508
2015-11-23 00:44:00,1910E-3,5C000400,-0724,0830,12325,025.7,045.4,0.261,766.2,01.15,0.508
2015-11-23 00:45:00,1941E-3,5C000400,-0724,0830,12350,025.7,045.4,0.261,766.2,01.15,0.508
2015-11-23 00:46:00,1866E-3,5C000400,-0724,0829,12264,025.7,045.4,0.261,766.0,01.15,0.508
2015-11-23 00:47:00,1908E-3,5C000400,-0724,0828,12270,025.7,045.4,0.262,765.8,01.16,0.508
2015-11-23 00:48:00,1856E-3,5C000400,-0724,0830,12125,025.7,045.4,0.261,765.8,01.16,0.508
2015-11-23 00:49:00,1969E-3,5C000400,-0724,0830,10975,025.7,045.3,0.261,765.9,01.15,0.508
2015-11-23 00:50:00,1795E-3,5C000400,-0724,0830,12509,025.7,045.3,0.261,766.0,01.15,0.508
2015-11-23 00:51:00,1745E-3,5C000400,-0724,0830,12177,025.7,045.3,0.261,766.0,01.15,0.508
2015-11-23 00:52:00,1815E-3,5C000400,-0724,0830,12094,025.7,045.3,0.261,765.8,01.16,0.508
2015-11-23 00:53:00,1894E-3,5C000400,-0724,0830,12321,025.7,045.4,0.261,765.6,01.16,0.508
2015-11-23 00:54:00,1943E-3,5C000400,-0724,0830,12368,025.7,045.4,0.261,765.6,01.16,0.508
2015-11-23 00:55:00,1827E-3,5C000400,-0724,0829,12266,025.8,045.4,0.261,765.2,01.16,0.508
2015-11-23 00:56:00,1774E-3,5C000400,-0724,0829,12151,025.8,045.4,0.261,765.4,01.16,0.508
2015-11-23 00:57:00,1830E-3,5C000400,-0724,0829,12183,025.8,045.4,0.261,765.6,01.16,0.508
2015-11-23 00:58:00,1884E-3,5C000400,-0724,0830,12340,025.8,045.4,0.261,765.5,01.16,0.508
2015-11-23 00:59:00,1901E-3,5C000400,-0724,0831,12161,025.8,045.4,0.261,765.3,01.16,0.508
2015-11-23 01:00:00,1668E-3,5C000400,-0724,0831,12208,025.8,045.4,0.261,765.3,01.16,0.508
2015-11-23 01:01:00,1695E-3,5C000400,-0724,0830,12153,025.8,045.3,0.261,765.4,01.16,0.508
2015-11-23 01:02:00,1698E-3,5C000400,-0724,0831,12259,025.8,045.4,0.261,764.9,01.16,0.508
2015-11-23 01:03:00,1977E-3,5C000400,-0724,0831,12329,025.8,045.4,0.261,765.2,01.16,0.508
2015-11-23 01:04:00,1763E-3,5C000400,-0724,0829,12322,025.8,045.4,0.261,765.3,01.16,0.508
2015-11-23 01:05:00,1973E-3,5C000400,-0724,0831,10994,025.8,045.3,0.261,765.2,01.16,0.508
2015-11-23 01:06:00,1924E-3,5C000400,-0724,0829,12262,025.8,045.4,0.261,765.2,01.16,0.508
2015-11-23 01:07:00,1911E-3,5C000400,-0724,0829,12236,025.8,045.4,0.261,765.1,01.16,0.508
2015-11-23 01:08:00,1886E-3,5C000400,-0724,0829,12361,025.8,045.4,0.261,765.1,01.16,0.508
2015-11-23 01:09:00,1960E-3,5C000400,-0724,0829,12200,025.8,045.4,0.261,765.1,01.16,0.508
2015-11-23 01:10:00,1920E-3,5C000400,-0724,0830,12281,025.8,045.4,0.261,765.1,01.16,0.508
2015-11-23 01:11:00,1987E-3,5C000400,-0724,0830,12288,025.9,045.4,0.260,764.8,01.16,0.508
2015-11-23 01:12:00,1955E-3,5C000400,-0724,0829,10838,025.8,045.4,0.261,765.2,01.16,0.508
2015-11-23 01:13:00,1832E-3,5C000400,-0724,0829,12348,025.8,045.4,0.260,765.2,01.16,0.508
2015-11-23 01:14:00,1788E-3,5C000400,-0724,0830,12267,025.8,045.4,0.261,764.9,01.16,0.508
2015-11-23 01:15:00,1854E-3,5C000400,-0724,0829,12361,025.8,045.4,0.261,765.3,01.16,0.508
2015-11-23 01:16:00,1793E-3,5C000400,-0724,0830,12126,025.8,045.4,0.261,765.2,01.16,0.508
2015-11-23 01:17:00,1842E-3,5C000400,-0724,0830,12344,025.8,045.4,0.261,765.3,01.16,0.508
2015-11-23 01:18:00,1961E-3,5C000400,-0724,0830,12264,025.8,045.4,0.261,765.3,01.16,0.508
2015-11-23 01:19:00,1899E-3,5C000400,-0724,0828,12089,025.9,045.4,0.261,765.2,01.16,0.508
2015-11-23 01:20:00,1810E-3,5C000400,-0724,0829,12216,025.8,045.4,0.261,765.2,01.16,0.508
2015-11-23 01:21:00,1831E-3,5C000400,-0724,0831,12336,025.9,045.4,0.261,765.3,01.16,0.508
2015-11-23 01:22:00,1746E-3,5C000400,-0724,0829,12172,025.8,045.4,0.260,765.0,01.16,0.508
2015-11-23 01:23:00,1865E-3,5C000400,-0724,0829,12224,025.9,045.4,0.261,765.1,01.16,0.508
2015-11-23 01:24:00,1829E-3,5C000400,-0724,0829,10927,025.8,045.4,0.260,764.8,01.16,0.508
2015-11-23 01:25:00,1830E-3,5C000400,-0724,0830,12244,025.9,045.4,0.261,764.9,01.16,0.508
2015-11-23 01:26:00,1848E-3,5C000400,-0724,0831,12184,025.9,045.4,0.260,765.1,01.16,0.508
2015-11-23 01:27:00,1945E-3,5C000400,-0724,0832,12351,025.8,045.4,0.261,765.2,01.16,0.508
2015-11-23 01:28:00,1853E-3,5C000400,-0724,0829,12238,025.9,045.4,0.260,764.9,01.16,0.508
2015-11-23 01:29:00,1813E-3,5C000400,-0724,0832,12113,025.8,045.4,0.261,765.1,01.16,0.508
2015-11-23 01:30:00,1881E-3,5C000400,-0724,0829,12208,025.8,045.4,0.261,765.1,01.16,0.508
2015-11-23 01:31:00,1886E-3,5C000400,-0724,0830,12058,025.8,045.4,0.261,765.2,01.16,0.508
2015-11-23 01:32:00,1764E-3,5C000400,-0724,0829,12209,025.8,045.4,0.261,765.2,01.16,0.508
2015-11-23 01:33:00,1848E-3,5C000400,-0724,0830,12281,025.8,045.4,0.261,765.0,01.16,0.508
2015-11-23 01:34:00,1917E-3,5C000400,-0724,0829,11333,025.9,045.4,0.261,765.2,01.16,0.508
2015-11-23 01:35:00,1890E-3,5C000400,-0724,0829,12373,025.8,045.4,0.261,765.0,01.16,0.508
2015-11-23 01:36:00,1874E-3,5C000400,-0724,0829,12365,025.8,045.4,0.261,765.1,01.16,0.508
2015-11-23 01:37:00,1824E-3,5C000400,-0724,0829,11230,025.9,045.4,0.261,764.9,01.16,0.508
2015-11-23 01:38:00,1898E-3,5C000400,-0724,0828,12298,025.9,045.4,0.261,764.7,01.16,0.508
2015-11-23 01:39:00,1970E-3,5C000400,-0724,0829,12112,025.8,045.4,0.261,765.1,01.16,0.508
2015-11-23 01:40:00,1888E-3,5C000400,-0724,0832,11102,025.8,045.4,0.261,764.9,01.16,0.508
2015-11-23 01:41:00,1755E-3,5C000400,-0724,0830,12163,025.8,045.4,0.261,764.9,01.16,0.508
2015-11-23 01:42:00,1890E-3,5C000400,-0724,0830,12311,025.8,045.4,0.261,764.9,01.16,0.508
2015-11-23 01:43:00,1770E-3,5C000400,-0724,0831,12312,025.8,045.4,0.261,765.0,01.16,0.508
2015-11-23 01:44:00,1963E-3,5C000400,-0724,0830,12158,025.8,045.4,0.261,765.2,01.16,0.508
2015-11-23 01:45:00,1860E-3,5C000400,-0724,0831,12153,025.8,045.4,0.261,764.9,01.16,0.508
2015-11-23 01:46:00,1931E-3,5C000400,-0724,0829,12226,025.8,045.4,0.261,765.2,01.16,0.508
2015-11-23 01:47:00,1788E-3,5C000410,-0724,0827,9805,025.8,045.4,0.261,765.1,01.16,0.508
2015-11-23 01:48:00,1893E-3,5C000400,-0724,0829,12373,025.8,045.4,0.261,765.4,01.16,0.508
2015-11-23 01:49:00,1879E-3,5C000400,-0724,0827,12267,025.8,045.4,0.260,765.3,01.16,0.508
2015-11-23 01:50:00,1866E-3,5C000400,-0724,0830,11025,025.8,045.4,0.261,765.3,01.16,0.508
2015-11-23 01:51:00,1913E-3,5C000400,-0724,0829,12366,025.8,045.4,0.260,765.2,01.16,0.508
2015-11-23 01:52:00,1872E-3,5C000400,-0724,0829,12330,025.8,045.4,0.261,765.2,01.16,0.508
2015-11-23 01:53:00,1825E-3,5C000400,-0724,0829,12088,025.8,045.4,0.260,765.1,01.16,0.508
2015-11-23 01:54:00,1845E-3,5C000400,-0724,0829,12225,025.8,045.4,0.261,765.2,01.16,0.508
2015-11-23 01:55:00,1836E-3,5C000400,-0724,0831,12324,025.8,045.4,0.261,764.9,01.16,0.508
2015-11-23 01:56:00,1825E-3,5C000400,-0724,0829,12218,025.8,045.4,0.261,764.9,01.16,0.508
2015-11-23 01:57:00,1887E-3,5C000400,-0724,0829,12302,025.8,045.4,0.261,765.3,01.16,0.508
2015-11-23 01:58:00,1865E-3,5C000400,-0724,0829,12268,025.8,045.4,0.260,765.1,01.16,0.508
2015-11-23 01:59:00,1841E-3,5C000400,-0724,0830,11072,025.8,045.4,0.261,765.4,01.16,0.508
2015-11-23 02:00:00,2049E-3,5C000400,-0724,0829,12220,025.8,045.4,0.260,765.4,01.16,0.508
2015-11-23 02:01:00,1848E-3,5C000400,-0724,0830,12367,025.8,045.4,0.261,765.2,01.16,0.508
2015-11-23 02:02:00,1811E-3,5C000400,-0724,0830,12245,025.8,045.4,0.260,765.0,01.16,0.508
2015-11-23 02:03:00,1878E-3,5C000400,-0724,0829,12175,025.8,045.4,0.261,765.4,01.16,0.508
2015-11-23 02:04:00,1996E-3,5C000400,-0724,0830,12204,025.8,045.4,0.261,765.4,01.16,0.508
2015-11-23 02:05:00,1910E-3,5C000400,-0724,0830,12421,025.8,045.4,0.261,765.2,01.16,0.508
2015-11-23 02:06:00,1977E-3,5C000400,-0724,0829,12301,025.8,045.4,0.261,765.6,01.16,0.508
2015-11-23 02:07:00,1807E-3,5C000400,-0724,0830,12003,025.8,045.4,0.261,765.4,01.16,0.508
2015-11-23 02:08:00,1821E-3,5C000400,-0724,0832,11077,025.8,045.4,0.261,765.4,01.16,0.508
2015-11-23 02:09:00,1907E-3,5C000400,-0724,0829,12295,025.8,045.4,0.261,765.3,01.16,0.508
2015-11-23 02:10:00,1796E-3,5C000400,-0724,0829,12291,025.8,045.4,0.261,765.5,01.16,0.508
2015-11-23 02:11:00,1967E-3,5C000400,-0724,0830,12223,025.8,045.4,0.261,765.6,01.16,0.508
2015-11-23 02:12:00,1809E-3,5C000400,-0724,0830,12133,025.8,045.4,0.261,765.8,01.16,0.508
2015-11-23 02:13:00,1791E-3,5C000400,-0724,0831,10971,025.8,045.3,0.261,765.8,01.16,0.508
2015-11-23 02:14:00,1824E-3,5C000400,-0724,0831,12595,025.8,045.4,0.261,765.7,01.16,0.508
2015-11-23 02:15:00,1842E-3,5C000400,-0724,0830,10834,025.8,045.4,0.260,765.4,01.16,0.508
2015-11-23 02:16:00,1917E-3,5C000400,-0724,0831,12189,025.8,045.4,0.261,765.7,01.16,0.508
2015-11-23 02:17:00,1910E-3,5C000400,-0724,0829,12271,025.8,045.3,0.260,765.6,01.16,0.508
2015-11-23 02:18:00,1845E-3,5C000400,-0724,0829,12277,025.8,045.4,0.261,765.3,01.16,0.508
2015-11-23 02:19:00,1916E-3,5C000400,-0724,0828,12220,025.8,045.4,0.261,765.5,01.16,0.508
2015-11-23 02:20:00,1712E-3,5C000400,-0724,0829,12276,025.8,045.4,0.261,765.0,01.16,0.508
2015-11-23 02:21:00,1756E-3,5C000400,-0724,0829,12195,025.8,045.4,0.261,765.3,01.16,0.508
2015-11-23 02:22:00,1722E-3,5C000400,-0724,0830,12291,025.8,045.4,0.261,765.4,01.16,0.508
2015-11-23 02:23:00,1913E-3,5C000400,-0724,0828,12179,025.8,045.4,0.261,765.2,01.16,0.508
2015-11-23 02:24:00,1760E-3,5C000400,-0724,0830,12214,025.8,045.4,0.261,765.3,01.16,0.508
2015-11-23 02:25:00,1921E-3,5C000400,-0724,0829,12132,025.8,045.4,0.261,765.5,01.16,0.508
2015-11-23 02:26:00,1891E-3,5C000400,-0724,0830,12353,025.8,045.4,0.261,765.6,01.16,0.508
2015-11-23 02:27:00,1752E-3,5C000400,-0724,0829,12248,025.8,045.4,0.261,765.3,01.16,0.508
2015-11-23 02:28:00,1846E-3,5C000400,-0724,0829,12360,025.8,045.4,0.260,765.6,01.16,0.508
2015-11-23 02:29:00,1913E-3,5C000400,-0724,0830,12009,025.8,045.4,0.261,765.7,01.16,0.508
2015-11-23 02:30:00,1919E-3,5C000400,-0724,0830,12243,025.8,045.4,0.261,765.7,01.16,0.508
2015-11-23 02:31:00,1919E-3,5C000400,-0724,0830,12285,025.8,045.4,0.261,765.5,01.16,0.508
2015-11-23 02:32:00,1864E-3,5C000400,-0724,0830,12141,025.8,045.4,0.261,765.2,01.16,0.508
2015-11-23 02:33:00,1831E-3,5C000400,-0724,0830,12205,025.8,045.4,0.261,765.6,01.16,0.508
2015-11-23 02:34:00,1887E-3,5C000400,-0724,0829,12187,025.8,045.4,0.261,765.4,01.16,0.508
2015-11-23 02:35:00,1713E-3,5C000400,-0724,0829,12093,025.8,045.4,0.261,765.8,01.16,0.508
2015-11-23 02:36:00,1886E-3,5C000400,-0724,0830,12127,025.8,045.4,0.261,765.7,01.16,0.508
2015-11-23 02:37:00,1809E-3,5C000400,-0724,0830,12231,025.8,045.4,0.261,765.8,01.16,0.508
2015-11-23 02:38:00,1895E-3,5C000400,-0724,0828,12070,025.7,045.4,0.261,765.9,01.15,0.508
2015-11-23 02:39:00,1816E-3,5C000400,-0724,0831,12483,025.8,045.4,0.261,765.6,01.16,0.508
2015-11-23 02:40:00,1847E-3,5C000400,-0724,0828,12280,025.8,045.4,0.261,765.7,01.16,0.508
2015-11-23 02:41:00,1949E-3,5C000400,-0724,0830,12530,025.8,045.4,0.260,765.9,01.15,0.508
2015-11-23 02:42:00,1816E-3,5C000400,-0724,0829,12106,025.8,045.4,0.261,765.9,01.15,0.508
2015-11-23 02:43:00,1805E-3,5C000400,-0724,0829,12235,025.8,045.4,0.261,765.8,01.16,0.508
2015-11-23 02:44:00,1969E-3,5C000400,-0724,0830,11098,025.8,045.4,0.261,765.6,01.16,0.508
2015-11-23 02:45:00,1744E-3,5C000400,-0724,0831,11094,025.8,045.4,0.261,765.6,01.16,0.508
2015-11-23 02:46:00,1763E-3,5C000400,-0724,0830,11220,025.8,045.4,0.261,765.5,01.16,0.508
2015-11-23 02:47:00,1865E-3,5C000400,-0724,0832,12293,025.8,045.4,0.261,765.6,01.16,0.508
2015-11-23 02:48:00,1882E-3,5C000400,-0724,0830,12436,025.8,045.4,0.261,765.7,01.16,0.508
2015-11-23 02:49:00,1761E-3,5C000400,-0724,0830,12196,025.7,045.3,0.261,765.7,01.16,0.508
2015-11-23 02:50:00,1887E-3,5C000400,-0724,0830,10896,025.8,045.4,0.260,765.6,01.16,0.508
2015-11-23 02:51:00,1702E-3,5C000400,-0724,0829,12148,025.8,045.4,0.261,765.8,01.16,0.508
2015-11-23 02:52:00,1769E-3,5C000400,-0724,0830,11107,025.8,045.3,0.261,765.8,01.16,0.508
2015-11-23 02:53:00,1942E-3,5C000400,-0724,0830,12094,025.8,045.4,0.261,765.6,01.16,0.508
2015-11-23 02:54:00,1902E-3,5C000400,-0724,0831,12294,025.8,045.4,0.261,765.6,01.16,0.508
2015-11-23 02:55:00,1696E-3,5C000400,-0724,0829,12262,025.8,045.4,0.261,765.6,01.16,0.508
2015-11-23 02:56:00,1763E-3,5C000400,-0724,0831,11215,025.8,045.4,0.261,765.7,01.16,0.508
2015-11-23 02:57:00,1798E-3,5C000400,-0724,0829,12320,025.8,045.4,0.261,765.5,01.16,0.508
2015-11-23 02:58:00,1848E-3,5C000400,-0724,0830,12175,025.8,045.4,0.261,765.5,01.16,0.508
2015-11-23 02:59:00,1765E-3,5C000400,-0724,0830,12072,025.8,045.4,0.261,765.6,01.16,0.508
2015-11-23 03:00:00,1825E-3,5C000400,-0724,0830,12073,025.8,045.4,0.261,765.4,01.16,0.508
2015-11-23 03:01:00,1806E-3,5C000400,-0724,0829,12156,025.8,045.4,0.261,765.4,01.16,0.508
2015-11-23 03:02:00,1917E-3,5C000400,-0724,0831,12216,025.8,045.4,0.261,765.3,01.16,0.508
2015-11-23 03:03:00,1828E-3,5C000400,-0724,0830,12030,025.8,045.4,0.261,765.3,01.16,0.508
2015-11-23 03:04:00,1989E-3,5C000400,-0724,0830,12082,025.8,045.4,0.261,765.4,01.16,0.508
2015-11-23 03:05:00,1684E-3,5C000400,-0724,0830,12178,025.7,045.4,0.261,765.7,01.16,0.508
2015-11-23 03:06:00,1954E-3,5C000400,-0724,0830,12089,025.8,045.4,0.261,765.5,01.16,0.508
2015-11-23 03:07:00,1863E-3,5C000400,-0724,0830,12371,025.8,045.4,0.261,765.6,01.16,0.508
2015-11-23 03:08:00,1857E-3,5C000400,-0724,0828,12196,025.7,045.4,0.261,765.4,01.16,0.508
2015-11-23 03:09:00,1774E-3,5C000400,-0724,0830,12137,025.7,045.4,0.261,765.4,01.16,0.508
2015-11-23 03:10:00,1831E-3,5C000400,-0724,0830,12348,025.8,045.4,0.261,764.9,01.16,0.508
2015-11-23 03:11:00,1778E-3,5C000400,-0724,0830,12226,025.7,045.4,0.261,765.0,01.16,0.508
2015-11-23 03:12:00,1849E-3,5C000400,-0724,0829,11094,025.8,045.4,0.261,765.4,01.16,0.508
2015-11-23 03:13:00,1854E-3,5C000400,-0724,0828,12225,025.7,045.4,0.261,765.4,01.16,0.508
2015-11-23 03:14:00,1881E-3,5C000400,-0724,0828,12183,025.7,045.4,0.261,765.4,01.16,0.508
2015-11-23 03:15:00,1914E-3,5C000400,-0724,0829,12203,025.8,045.4,0.261,765.2,01.16,0.508
2015-11-23 03:16:00,1758E-3,5C000400,-0724,0830,12178,025.8,045.4,0.260,764.7,01.16,0.508
2015-11-23 03:17:00,1848E-3,5C000400,-0724,0829,12148,025.7,045.4,0.261,764.8,01.16,0.508
2015-11-23 03:18:00,1849E-3,5C000400,-0724,0828,12136,025.8,045.4,0.260,764.5,01.16,0.508
2015-11-23 03:19:00,1867E-3,5C000400,-0724,0829,12290,025.7,045.4,0.261,764.6,01.16,0.508
2015-11-23 03:20:00,1771E-3,5C000400,-0724,0829,12350,025.8,045.4,0.260,764.6,01.16,0.508
2015-11-23 03:21:00,2061E-3,5C000400,-0724,0829,12175,025.8,045.4,0.261,764.5,01.16,0.508
2015-11-23 03:22:00,1807E-3,5C000400,-0724,0830,12324,025.7,045.4,0.260,764.8,01.16,0.508
2015-11-23 03:23:00,1945E-3,5C000400,-0724,0829,12252,025.8,045.4,0.261,764.7,01.16,0.508
2015-11-23 03:24:00,1797E-3,5C000400,-0724,0829,12140,025.7,045.4,0.260,764.3,01.16,0.508
2015-11-23 03:25:00,1870E-3,5C000400,-0724,0830,12239,025.7,045.4,0.261,764.7,01.16,0.508
2015-11-23 03:26:00,1855E-3,5C000400,-0724,0829,12374,025.7,045.4,0.260,764.3,01.16,0.508
2015-11-23 03:27:00,1809E-3,5C000400,-0724,0829,12210,025.7,045.4,0.261,764.5,01.16,0.508
2015-11-23 03:28:00,1818E-3,5C000400,-0724,0829,12223,025.7,045.4,0.260,764.8,01.16,0.508
2015-11-23 03:29:00,1988E-3,5C000400,-0724,0829,12091,025.7,045.4,0.261,764.9,01.16,0.508
2015-11-23 03:30:00,1921E-3,5C000400,-0724,0829,12243,025.7,045.3,0.261,765.4,01.16,0.508
2015-11-23 03:31:00,1962E-3,5C000400,-0724,0829,12199,025.7,045.4,0.261,765.3,01.16,0.508
2015-11-23 03:32:00,1939E-3,5C000400,-0724,0829,12177,025.7,045.4,0.261,765.0,01.16,0.508
2015-11-23 03:33:00,1864E-3,5C000400,-0724,0830,12230,025.7,045.4,0.261,765.0,01.16,0.508
2015-11-23 03:34:00,1827E-3,5C000400,-0724,0830,12312,025.7,045.4,0.261,765.2,01.16,0.508
2015-11-23 03:35:00,1883E-3,5C000400,-0724,0831,12354,025.7,045.4,0.262,765.3,01.16,0.508
2015-11-23 03:36:00,1900E-3,5C000400,-0724,0828,12319,025.7,045.4,0.261,765.1,01.16,0.508
2015-11-23 03:37:00,1891E-3,5C000400,-0724,0830,11989,025.7,045.4,0.262,765.4,01.16,0.508
2015-11-23 03:38:00,1915E-3,5C000400,-0724,0830,12384,025.7,045.4,0.261,765.4,01.16,0.508
2015-11-23 03:39:00,1850E-3,5C000400,-0724,0830,12221,025.7,045.4,0.261,765.3,01.16,0.508
2015-11-23 03:40:00,1805E-3,5C000400,-0724,0829,12124,025.7,045.3,0.261,765.2,01.16,0.508
2015-11-23 03:41:00,1863E-3,5C000400,-0724,0830,12175,025.7,045.4,0.261,765.4,01.16,0.508
2015-11-23 03:42:00,1838E-3,5C000400,-0724,0829,12242,025.7,045.4,0.261,765.6,01.16,0.508
2015-11-23 03:43:00,1925E-3,5C000400,-0724,0830,12227,025.7,045.4,0.261,765.4,01.16,0.508
2015-11-23 03:44:00,1915E-3,5C000400,-0724,0830,12259,025.7,045.4,0.261,765.5,01.16,0.508
2015-11-23 03:45:00,1857E-3,5C000400,-0724,0829,12039,025.7,045.4,0.261,765.3,01.16,0.508
2015-11-23 03:46:00,1723E-3,5C000400,-0724,0829,12169,025.7,045.4,0.261,765.4,01.16,0.508
2015-11-23 03:47:00,1797E-3,5C000400,-0724,0829,12092,025.7,045.4,0.261,765.3,01.16,0.508
2015-11-23 03:48:00,1833E-3,5C000400,-0724,0831,12295,025.7,045.4,0.261,765.5,01.16,0.508
2015-11-23 03:49:00,1842E-3,5C000400,-0724,0830,12143,025.7,045.4,0.261,765.4,01.16,0.508
2015-11-23 03:50:00,1886E-3,5C000400,-0724,0830,12052,025.7,045.4,0.261,765.5,01.16,0.508
2015-11-23 03:51:00,2052E-3,5C000400,-0724,0829,12261,025.7,045.4,0.261,765.5,01.16,0.508
2015-11-23 03:52:00,1770E-3,5C000400,-0724,0828,12262,025.7,045.3,0.261,765.6,01.16,0.508
2015-11-23 03:53:00,1885E-3,5C000400,-0724,0830,12224,025.7,045.3,0.261,765.7,01.16,0.508
2015-11-23 03:54:00,1901E-3,5C000400,-0724,0829,11087,025.7,045.4,0.261,765.6,01.16,0.508
2015-11-23 03:55:00,1855E-3,5C000400,-0724,0829,12333,025.7,045.4,0.261,765.4,01.16,0.508
2015-11-23 03:56:00,1734E-3,5C000400,-0724,0829,12216,025.7,045.4,0.261,765.7,01.16,0.508
2015-11-23 03:57:00,1738E-3,5C000400,-0724,0829,12185,025.7,045.3,0.261,765.8,01.16,0.508
2015-11-23 03:58:00,1908E-3,5C000400,-0724,0830,12175,025.7,045.4,0.261,765.4,01.16,0.508
2015-11-23 03:59:00,1846E-3,5C000400,-0724,0830,12077,025.7,045.4,0.261,765.5,01.16,0.508
2015-11-23 04:00:00,1938E-3,5C000400,-0724,0829,12274,025.7,045.4,0.261,765.6,01.16,0.508
2015-11-23 04:01:00,1942E-3,5C000400,-0724,0830,12088,025.7,045.4,0.261,765.6,01.16,0.508
2015-11-23 04:02:00,1843E-3,5C000400,-0724,0830,12246,025.7,045.4,0.261,765.4,01.16,0.508
2015-11-23 04:03:00,1829E-3,5C000400,-0724,0830,12263,025.7,045.4,0.261,765.4,01.16,0.508
2015-11-23 04:04:00,1942E-3,5C000400,-0724,0830,12515,025.7,045.4,0.261,765.3,01.16,0.508
2015-11-23 04:05:00,1883E-3,5C000400,-0724,0829,12280,025.6,045.3,0.261,765.6,01.16,0.508
2015-11-23 04:06:00,1792E-3,5C000400,-0724,0830,12267,025.7,045.3,0.261,765.5,01.16,0.508
2015-11-23 04:07:00,1855E-3,5C000400,-0724,0829,12361,025.6,045.4,0.261,765.3,01.16,0.508
2015-11-23 04:08:00,1924E-3,5C000400,-0724,0829,12129,025.6,045.4,0.261,765.3,01.16,0.508
2015-11-23 04:09:00,1730E-3,5C000400,-0724,0830,12206,025.6,045.4,0.261,765.4,01.16,0.508
2015-11-23 04:10:00,1910E-3,5C000400,-0724,0829,12094,025.6,045.4,0.261,765.6,01.16,0.508
2015-11-23 04:11:00,1896E-3,5C000400,-0724,0830,12258,025.6,045.4,0.261,765.7,01.16,0.508
2015-11-23 04:12:00,1833E-3,5C000400,-0724,0829,12033,025.6,045.3,0.261,765.6,01.16,0.508
2015-11-23 04:13:00,1890E-3,5C000400,-0724,0829,12367,025.7,045.4,0.261,765.5,01.16,0.508
2015-11-23 04:14:00,1779E-3,5C000400,-0724,0830,12048,025.7,045.4,0.261,765.4,01.16,0.508
2015-11-23 04:15:00,1768E-3,5C000400,-0724,0830,12345,025.6,045.3,0.261,765.5,01.16,0.508
2015-11-23 04:16:00,1825E-3,5C000400,-0724,0829,12437,025.6,045.3,0.261,765.6,01.16,0.508
2015-11-23 04:17:00,1840E-3,5C000400,-0724,0829,12213,025.6,045.4,0.261,765.7,01.16,0.508
2015-11-23 04:18:00,1760E-3,5C000400,-0724,0829,12275,025.6,045.4,0.261,765.8,01.16,0.508
2015-11-23 04:19:00,1757E-3,5C000400,-0724,0829,12329,025.6,045.3,0.261,765.9,01.15,0.508
2015-11-23 04:20:00,1903E-3,5C000400,-0724,0830,12118,025.6,045.3,0.261,765.7,01.16,0.508